Stations météo

réclame
Mon MeteoGroup
Gotska sandoen, Suède (2589): Température de l'air & dewpoint: 14.01.2020 08:00:00 - 20.01.2020 08:00:00 (CET)Gotska sandoen, Suède (2589): Vitesse du vent & gusts: 14.01.2020 08:00:00 - 20.01.2020 08:00:00 (CET)Gotska sandoen, Suède (2589): Direction du vent: 14.01.2020 08:00:00 - 20.01.2020 08:00:00 (CET)Gotska sandoen, Suède (2589): reduced air pressure: 14.01.2020 08:00:00 - 20.01.2020 08:00:00 (CET)Gotska sandoen, Suède (2589): visibility: 14.01.2020 08:00:00 - 20.01.2020 08:00:00 (CET)Gotska sandoen, Suède (2589): Quantités de précipitations: 14.01.2020 08:00:00 - 20.01.2020 08:00:00 (CET)
Date & Time tt [°C] td [°C] ff [km/h] ff [knt] fx [km/h] fx [knt] dd ppp [hPa] vv [km] rr [mm]
20.01.2020 08:00:00 3,2 0,2 22 12 40 22 W 1031,4 50 0,0
20.01.2020 07:00:00 3,0 0,6 26 14 41 22 W 1031,7 50 0,0
20.01.2020 06:00:00 3,1 0,8 22 12 35 19 W 1032,0 50 0,0
20.01.2020 05:00:00 3,1 0,8 19 10 33 18 W 1032,5 50 0,0
20.01.2020 04:00:00 3,0 0,7 20 11 34 19 W 1032,8 50 0,0
20.01.2020 03:00:00 2,9 0,6 18 10 30 16 W 1033,2 50 0,0
20.01.2020 02:00:00 2,8 0,5 14 8 26 14 W 1032,8 50 0,0
20.01.2020 01:00:00 2,8 0,4 16 9 27 14 WNW 1032,8 50 0,0
20.01.2020 00:00:00 2,9 0,5 16 8 31 17 WNW 1032,5 50 0,0
19.01.2020 23:00:00 2,9 0,6 15 8 28 15 WNW 1032,6 50 0,0
19.01.2020 22:00:00 3,1 0,8 14 8 28 15 WNW 1032,1 50 0,0
19.01.2020 21:00:00 3,2 1,1 15 8 28 15 WNW 1031,5 50 0,0
19.01.2020 20:00:00 3,5 1,4 16 9 30 16 WNW 1031,3 50 0,0
19.01.2020 19:00:00 3,7 1,6 19 10 33 18 WNW 1030,6 50 0,0
19.01.2020 18:00:00 3,2 1,9 14 8 32 17 W 1029,7 50 0,0
19.01.2020 17:00:00 3,4 1,8 16 8 29 16 WNW 1028,6 50 0,0
19.01.2020 16:00:00 3,5 2,0 14 7 26 14 WNW 1027,9 50 0,0
19.01.2020 15:00:00 3,8 2,2 14 8 29 15 W 1026,8 50 0,0
19.01.2020 14:00:00 4,1 2,0 17 9 30 16 WNW 1026,0 50 0,0
19.01.2020 13:00:00 4,7 2,1 14 7 26 14 W 1024,9 50 0,0
19.01.2020 12:00:00 4,4 2,3 14 8 29 15 W 1023,9 50 0,0
19.01.2020 11:00:00 4,5 2,8 17 9 29 15 W 1022,9 50 0,0
19.01.2020 10:00:00 3,9 2,7 16 8 27 14 W 1022,3 50 0,0
19.01.2020 09:00:00 3,8 2,6 13 7 26 14 W 1021,2 50 0,0
19.01.2020 08:00:00 3,7 2,4 15 8 24 13 W 1019,6 50 0,0
19.01.2020 07:00:00 4,3 2,5 14 8 26 14 WNW 1018,2 50 0,0
19.01.2020 06:00:00 5,2 2,9 16 9 30 16 WNW 1016,8 50 0,0
19.01.2020 05:00:00 5,2 3,1 16 9 37 20 W 1015,6 44 0,0
19.01.2020 04:00:00 5,4 3,6 25 14 42 23 W 1014,5 28 0,0
19.01.2020 03:00:00 5,6 3,8 27 14 49 26 W 1013,5 39 0,0
19.01.2020 02:00:00 5,5 3,8 26 14 45 25 WSW 1012,4 34 0,0
19.01.2020 01:00:00 5,4 3,6 28 15 53 28 WSW 1011,5 40 0,0
19.01.2020 00:00:00 5,3 3,3 33 18 57 31 WSW 1010,8 49 0,0
18.01.2020 23:00:00 5,5 3,2 32 17 54 29 WSW 1010,5 38 -
18.01.2020 22:00:00 5,4 3,1 32 17 57 31 WSW 1010,2 35 0,0
18.01.2020 21:00:00 5,3 3,0 32 18 59 32 WSW 1009,9 35 0,0
18.01.2020 20:00:00 5,0 2,9 33 18 54 29 WSW 1009,8 24 0,0
18.01.2020 19:00:00 5,3 3,0 32 17 54 29 SW 1009,8 33 0,0
18.01.2020 18:00:00 5,1 2,8 31 17 55 30 SW 1009,8 47 0,0
18.01.2020 17:00:00 5,2 3,2 31 17 50 27 WSW 1009,7 48 0,0
18.01.2020 16:00:00 5,3 3,3 31 17 52 28 SW 1009,5 29 0,0
18.01.2020 15:00:00 5,3 3,6 29 15 46 25 SW 1009,3 17 0,0
18.01.2020 14:00:00 5,9 4,5 27 15 44 24 WSW 1009,1 15 0,0
18.01.2020 13:00:00 6,0 4,8 24 13 46 25 WSW 1009,0 11 0,0
18.01.2020 12:00:00 5,8 4,6 25 14 45 24 WSW 1008,8 8 0,0
18.01.2020 11:00:00 5,4 4,4 27 14 49 26 WSW 1008,6 4,3 0,0
18.01.2020 10:00:00 5,3 4,3 28 15 48 26 SW 1008,7 3,4 0,1
18.01.2020 09:00:00 5,2 4,0 26 14 46 25 SW 1008,7 3,8 0,0
18.01.2020 08:00:00 5,0 3,5 21 11 42 23 SW 1008,5 5 0,0
18.01.2020 07:00:00 4,8 3,1 21 12 45 25 SW 1008,7 6 0,0
18.01.2020 06:00:00 4,5 3,0 23 12 46 25 SW 1009,2 6 0,0
18.01.2020 05:00:00 4,2 3,2 17 9 40 22 SW 1009,6 4,5 0,0
18.01.2020 04:00:00 3,3 2,1 27 15 45 24 SW 1010,2 6 0,0
18.01.2020 03:00:00 4,1 2,6 25 13 44 24 SSW 1010,3 10 0,0
18.01.2020 02:00:00 4,1 2,3 24 13 40 21 SSW 1010,9 14 0,0
18.01.2020 01:00:00 4,2 2,1 24 13 40 22 S 1011,7 15 0,0
18.01.2020 00:00:00 4,2 2,4 21 12 42 23 SSW 1012,6 12 0,0
17.01.2020 23:00:00 4,2 2,7 22 12 43 23 S 1013,9 10 0,0
17.01.2020 22:00:00 4,4 2,7 23 13 46 25 SSW 1014,7 12 0,0
17.01.2020 21:00:00 4,7 3,4 22 12 42 23 SSW 1015,3 12 0,0
17.01.2020 20:00:00 4,9 3,4 25 13 45 24 SSW 1015,7 18 0,0
17.01.2020 19:00:00 5,0 3,8 24 13 42 23 SSW 1016,2 12 0,0
17.01.2020 18:00:00 5,0 4,1 21 11 35 19 SSW 1016,8 11 0,0
17.01.2020 17:00:00 5,0 4,1 19 11 35 19 SSW 1017,1 12 0,0
17.01.2020 16:00:00 5,4 4,2 21 12 39 21 SSW 1017,3 16 0,0
17.01.2020 15:00:00 5,1 3,9 21 12 39 21 SSW 1017,7 17 0,0
17.01.2020 14:00:00 5,5 4,0 23 12 42 23 SSW 1018,0 20 0,0
17.01.2020 13:00:00 5,6 3,9 23 13 44 24 SSW 1018,6 22 0,0
17.01.2020 12:00:00 5,4 3,9 23 12 44 24 SSW 1019,4 17 0,0
17.01.2020 11:00:00 5,3 4,0 24 13 42 23 SSW 1020,0 14 0,0
17.01.2020 10:00:00 4,6 3,3 24 13 46 25 SSW 1020,6 15 0,0
17.01.2020 09:00:00 4,0 2,8 22 12 45 24 SSW 1021,0 15 0,0
17.01.2020 08:00:00 4,5 3,5 28 15 48 26 SW 1021,2 13 0,0
17.01.2020 07:00:00 4,6 3,6 25 13 44 24 SW 1021,2 13 0,0
17.01.2020 06:00:00 4,7 3,5 25 14 42 23 SW 1021,8 15 0,0
17.01.2020 05:00:00 4,6 3,6 25 14 44 24 WSW 1021,7 13 0,0
17.01.2020 04:00:00 4,7 3,5 25 13 41 22 WSW 1021,7 13 0,0
17.01.2020 03:00:00 4,7 3,2 23 12 42 23 WSW 1021,7 15 0,0
17.01.2020 02:00:00 4,6 3,1 24 13 45 24 WSW 1022,1 14 0,0
17.01.2020 01:00:00 4,8 3,1 29 15 45 24 WSW 1021,9 14 0,0
17.01.2020 00:00:00 4,9 2,9 26 14 45 24 WSW 1021,5 15 0,0
16.01.2020 23:00:00 5,0 2,9 24 13 48 26 W 1021,0 14 0,0
16.01.2020 22:00:00 5,2 3,1 32 17 55 30 W 1020,6 14 0,0
16.01.2020 21:00:00 5,4 2,9 30 16 47 26 WSW 1019,9 15 0,0
16.01.2020 20:00:00 5,6 2,9 29 16 50 27 WSW 1019,3 15 0,0
16.01.2020 19:00:00 5,8 3,1 37 20 53 29 W 1018,3 15 0,0
16.01.2020 18:00:00 5,9 3,4 34 18 52 28 W 1017,5 15 0,0
16.01.2020 17:00:00 5,9 3,6 34 18 50 27 W 1016,5 17 0,0
16.01.2020 16:00:00 5,9 3,7 34 19 48 26 W 1015,7 20 0,0
16.01.2020 15:00:00 6,0 3,7 28 15 50 27 W 1014,8 21 0,0
16.01.2020 14:00:00 6,4 3,9 32 17 54 29 WSW 1013,9 17 0,0
16.01.2020 13:00:00 6,2 3,9 36 20 63 34 WSW 1013,1 15 0,0
16.01.2020 12:00:00 6,1 3,6 39 21 62 34 WSW 1012,2 15 0,0
16.01.2020 11:00:00 5,9 3,6 37 20 62 34 WSW 1012,0 14 0,0
16.01.2020 10:00:00 5,8 3,6 36 19 60 33 WSW 1011,3 15 0,0
16.01.2020 09:00:00 5,4 3,4 39 21 64 34 WSW 1010,6 16 0,0
16.01.2020 08:00:00 5,2 3,2 36 19 55 30 WSW 1010,1 18 0,0
16.01.2020 07:00:00 5,1 3,3 36 19 58 32 WSW 1009,5 21 0,0
16.01.2020 06:00:00 5,1 3,6 36 20 58 32 W 1009,0 26 0,0
16.01.2020 05:00:00 4,9 3,4 33 18 56 30 WSW 1008,4 34 0,0
16.01.2020 04:00:00 4,6 3,6 30 16 48 26 W 1007,4 47 0,0
16.01.2020 03:00:00 4,7 4,1 26 14 41 22 WSW 1006,8 50 0,0
16.01.2020 02:00:00 4,6 4,3 15 8 35 19 WSW 1006,2 33 0,7
16.01.2020 01:00:00 4,5 4,2 16 9 31 17 W 1005,6 7 1,6
16.01.2020 00:00:00 4,8 4,5 12 6 21 11 W 1004,5 9 1,1
15.01.2020 23:00:00 5,2 4,9 11 6 24 13 W 1004,1 9 1,1
15.01.2020 22:00:00 5,9 5,6 11 6 24 13 W 1003,9 6 1,6
15.01.2020 21:00:00 6,3 6,0 13 7 23 12 W 1003,4 3,7 1,7
15.01.2020 20:00:00 6,6 6,3 13 7 31 17 WSW 1003,1 5 0,8
15.01.2020 19:00:00 6,5 6,2 18 10 35 19 WSW 1003,1 3,4 0,4
15.01.2020 18:00:00 6,6 6,2 25 14 49 26 WSW 1002,8 11 0,1
15.01.2020 17:00:00 6,6 6,2 35 19 49 27 WSW 1001,7 6 0,6
15.01.2020 16:00:00 6,8 6,1 27 15 54 29 W 1001,0 6 0,2
15.01.2020 15:00:00 7,6 6,1 37 20 67 36 WSW 999,6 23 0,0
15.01.2020 14:00:00 7,8 6,1 43 23 68 37 SW 998,5 30 0,0
15.01.2020 13:00:00 7,9 6,2 39 21 66 36 SW 998,4 27 0,0
15.01.2020 12:00:00 7,8 6,1 39 21 69 37 SW 998,0 25 0,0
15.01.2020 11:00:00 7,7 6,0 43 23 69 37 SW 997,5 28 0,0
15.01.2020 10:00:00 7,8 5,9 42 23 75 41 SW 997,1 25 0,0
15.01.2020 09:00:00 8,0 6,0 46 25 74 40 SW 996,6 25 0,0
15.01.2020 08:00:00 8,0 6,1 41 22 74 40 SW 996,0 28 0,0
15.01.2020 07:00:00 7,6 6,1 39 21 67 36 SW 995,6 22 0,0
15.01.2020 06:00:00 7,3 5,9 37 20 69 37 SW 995,7 18 0,0
15.01.2020 05:00:00 6,7 6,0 32 17 62 34 SW 996,2 17 0,1
15.01.2020 04:00:00 5,8 5,4 35 19 59 32 SSW 996,8 2,3 0,9
15.01.2020 03:00:00 5,5 4,9 31 17 54 29 S 998,2 6 0,2
15.01.2020 02:00:00 5,5 4,5 27 14 50 27 SSW 1000,1 17 0,0
15.01.2020 01:00:00 5,4 4,5 23 12 41 22 SSW 1001,1 17 0,0
15.01.2020 00:00:00 5,6 4,6 22 12 47 25 SW 1001,6 23 0,0
14.01.2020 23:00:00 5,6 4,6 23 13 44 24 SW 1002,1 21 0,0
14.01.2020 22:00:00 5,3 4,6 27 15 42 23 WSW 1001,9 20 0,0
14.01.2020 21:00:00 5,4 4,8 31 17 48 26 WSW 1001,3 20 0,0
14.01.2020 20:00:00 5,4 4,8 29 16 54 29 WSW 1000,8 14 0,0
14.01.2020 19:00:00 5,5 4,9 35 19 58 31 WSW 1000,6 12 0,0
14.01.2020 18:00:00 5,6 5,0 33 18 53 29 SW 1000,1 12 0,4
14.01.2020 17:00:00 5,1 4,5 25 13 55 30 SW 999,9 8 0,5
14.01.2020 16:00:00 4,7 4,1 31 17 61 33 SSW 999,9 6 0,7
14.01.2020 15:00:00 4,7 3,8 34 18 74 40 SSW 1000,5 6 0,4
14.01.2020 14:00:00 5,3 3,1 36 19 71 38 SSW 1001,1 13 0,0
14.01.2020 13:00:00 5,3 3,0 37 20 70 38 SSW 1002,2 21 0,0
14.01.2020 12:00:00 5,0 2,5 39 21 78 42 SSW 1003,5 23 0,0
14.01.2020 11:00:00 5,1 2,3 37 20 69 37 SSW 1004,8 35 0,0
14.01.2020 10:00:00 5,0 2,7 32 18 61 33 SSW 1006,1 31 0,0
14.01.2020 09:00:00 4,7 2,4 30 16 56 31 SSW 1006,6 22 0,0
14.01.2020 08:00:00 4,6 2,9 29 16 52 28 SSW 1007,8 27 0,0

tt = Température de l'air
td = dewpoint
ff = Vitesse du vent
fx = gusts
dd = Direction du vent
ppp = reduced air pressure
vv = visibility
rr = Quantités de précipitations

stations d'obs. à proximité